Location: Newark
(32.9167°N, 112.9667°W)
Time: 15:11:28
(UTC+00:00)

N. Korean satellite - Pass Details

Date: 23 October 2019
Orbit: 456 x 506 km, 97.2° (Epoch: 21 November)

Event Time Altitude Azimuth Distance (km) Brightness Sun altitude
Rises 01:29:29 0° 200° (SSW) 2,458 10.5 -8.8°
Reaches altitude 10° 01:31:58 10° 219° (SW) 1,591 9.9 -9.3°
Maximum altitude 01:34:23 18° 265° (W) 1,186 9.8 -9.8°
Drops below altitude 10° 01:36:50 10° 310° (NW) 1,606 9.9 -10.3°
Sets 01:39:22 0° 330° (NNW) 2,492 10.5 -10.9°
